Weather History for Rankin Inlet, NU

Change the Weather History Date:

Saturday, January 5, 2013

  Actual Average Record
Temperature  
Mean Temperature -30 °F -  
Max Temperature -23 °F -15 °F 8 °F (2006)
Min Temperature -33 °F -26 °F -43 °F (1998)
Degree Days  
Heating Degree Days 96    
Moisture  
Dew Point -37 °F    
Average Humidity 64    
Maximum Humidity 69    
Minimum Humidity 47    
Precipitation  
Precipitation 0.00 in - - ()
Sea Level Pressure  
Sea Level Pressure 29.87 in    
Wind  
Wind Speed 21 mph ()    
Max Wind Speed 34 mph    
Max Gust Speed 41 mph    
Visibility 5.6 miles    
Events Snow    
Averages and records for this station are not official NWS values.
T = Trace of Precipitation, MM = Missing Value Source: Averaged Metar Reports

Daily Weather History Graph

Daily Weather History Graph

Search for Another Location

Airport:

Trip Planner

Search our weather history database for the weather conditions in past years. The results will help you decide how hot, cold, wet, or windy it might be!

Date:

Astronomy

Jan. 05, 2013 Rise Set
Actual Time 9:36 AM CST 2:51 PM CST
Civil Twilight 8:30 AM CST 3:58 PM CST
Nautical Twilight 7:27 AM CST 5:00 PM CST
Astronomical Twilight 6:31 AM CST 5:57 PM CST
Moon 1:24 AM CST (1/5) 10:52 AM CST (1/5)
Length of Visible Light 7h 27m
Length of Day
5h 15m
Last Quarter, 44% of the Moon is Illuminated
Jan 5
Last Quarter
Jan 11
New
Jan 18
First Quarter
Jan 26
Full
Feb 3
Last Quarter

Hourly Weather History & Observations

Time (CST) Temp. Windchill Dew Point Humidity Pressure Visibility Wind Dir Wind Speed Gust Speed Precip Events Conditions
12:00 AM -29 °F - -36 °F 52% 29.64 in 0 mi NNW 34.5 mph - - Snow Snow
12:00 AM -29.2 °F -67.4 °F -36.4 °F 68% 29.64 in 0.1 mi NNW 34.5 mph 41.4 mph N/A Snow Heavy Ice Crystals
1:00 AM -29.2 °F -66.5 °F -36.4 °F 68% 29.67 in 0.1 mi NNW 32.2 mph 39.1 mph N/A Snow Heavy Ice Crystals
2:00 AM -27.4 °F -62.0 °F -34.6 °F 69% 29.70 in 0.1 mi North 27.6 mph 33.4 mph N/A Snow Heavy Ice Crystals
3:00 AM -27.4 °F -61.4 °F -34.6 °F 69% 29.73 in 0.2 mi NNW 26.5 mph 34.5 mph N/A Snow Heavy Ice Crystals
4:00 AM -27.4 °F -62.0 °F -34.6 °F 69% 29.77 in 0.2 mi NNW 27.6 mph 33.4 mph N/A Snow Heavy Ice Crystals
4:41 AM - - - N/A% - 0.5 mi NNW 25.3 mph - N/A   Ice Crystals
5:00 AM -27.4 °F -62.0 °F -34.6 °F 69% 29.80 in 0.5 mi NNW 27.6 mph - N/A Snow Ice Crystals
6:00 AM -28 °F - -36 °F 49% 29.82 in 0 mi NNW 27.6 mph - - Snow Snow
6:00 AM -27.4 °F -62.0 °F -36.4 °F 62% 29.82 in 0.5 mi NNW 27.6 mph - N/A Snow Ice Crystals
7:00 AM -29.2 °F -65.5 °F -36.4 °F 68% 29.83 in 0.5 mi NNW 29.9 mph 38.0 mph N/A Snow Ice Crystals
8:00 AM -29.2 °F -63.3 °F -36.4 °F 68% 29.86 in 0.5 mi North 25.3 mph - N/A Snow Ice Crystals
8:22 AM - - - N/A% - 1.0 mi North 19.6 mph 28.8 mph N/A   Ice Crystals
8:30 AM - - - N/A% - 2.0 mi NNW 16.1 mph 21.9 mph N/A   Ice Crystals
9:00 AM -29.2 °F -56.8 °F -36.4 °F 68% 29.90 in 2.0 mi NW 15.0 mph - N/A Snow Ice Crystals
10:00 AM -29.2 °F -60.0 °F -38.2 °F 62% 29.91 in 2.0 mi NNW 19.6 mph - N/A Snow Ice Crystals
11:00 AM -29.2 °F -61.4 °F -38.2 °F 62% 29.92 in 2.0 mi NNW 21.9 mph - N/A Snow Ice Crystals
12:00 PM -31 °F - -38 °F 52% 29.93 in 2 mi NNW 20.7 mph - - Snow Snow
12:00 PM -31.0 °F -63.1 °F -38.2 °F 68% 29.93 in 2.0 mi NNW 20.7 mph - N/A Snow Ice Crystals
12:27 PM - - - N/A% - 5.0 mi NW 19.6 mph - N/A   Ice Crystals
1:00 PM -31.0 °F -60.8 °F -38.2 °F 68% 29.94 in 5.0 mi North 17.3 mph - N/A Snow Ice Crystals
2:00 PM -31.0 °F -61.6 °F -38.2 °F 68% 29.94 in 6.0 mi North 18.4 mph - N/A Snow Ice Crystals
3:00 PM -32.8 °F -55.6 °F -40.0 °F 68% 29.98 in 12.0 mi West 9.2 mph - N/A Snow Low Drifting Snow
4:00 PM -32.8 °F -57.0 °F -40.0 °F 68% 29.97 in 15.0 mi WNW 10.4 mph - N/A   Partly Cloudy
5:00 PM -32.8 °F -59.3 °F -40.0 °F 68% 29.98 in 15.0 mi WNW 12.7 mph - N/A   Partly Cloudy
6:00 PM -33 °F - -40 °F 49% 29.96 in 15 mi NW 10.4 mph - - Snow Snow
6:00 PM -32.8 °F -55.6 °F -40.0 °F 68% 29.96 in 15.0 mi NW 9.2 mph - N/A   Clear
7:00 PM -32.8 °F -50.5 °F -40.0 °F 68% 29.97 in 15.0 mi West 5.8 mph - N/A   Clear
8:00 PM -31.0 °F -50.3 °F -38.2 °F 68% 29.96 in 15.0 mi West 6.9 mph - N/A   Clear
9:00 PM -31.0 °F -50.3 °F -38.2 °F 68% 29.94 in 15.0 mi WSW 6.9 mph - N/A   Clear
10:00 PM -29.2 °F -51.2 °F -36.4 °F 68% 29.94 in 15.0 mi WSW 9.2 mph - N/A   Mostly Cloudy
11:00 PM -23.8 °F -39.8 °F -38.2 °F 47% 29.93 in 15.0 mi WSW 5.8 mph - N/A   Scattered Clouds